Westhampton Beach, NY

4:23 PM EDT on September 26, 2017 (GMT -0400)
The Gabreski

Weather History for KFOK - February, 2012

Change the Weather History Date:

Wednesday, February 15, 2012

  Actual Average Record
Temperature  
Mean Temperature 40 °F -  
Max Temperature 46 °F 38 °F 54 °F (2005)
Min Temperature 33 °F 21 °F -8 °F (2016)
Degree Days  
Heating Degree Days 26    
Moisture  
Dew Point 35 °F    
Average Humidity 79    
Maximum Humidity 96    
Minimum Humidity 66    
Precipitation  
Precipitation 0.01 in - - ()
Sea Level Pressure  
Sea Level Pressure 30.18 in    
Wind  
Wind Speed 2 mph (NW)    
Max Wind Speed 8 mph    
Max Gust Speed -    
Visibility 9 miles    
Events Rain    
Averages and records for this station are not official NWS values.
T = Trace of Precipitation, MM = Missing Value Source: NWS Daily Summary

Daily Weather History Graph

Daily Weather History Graph

Search for Another Location

Airport or City:

Trip Planner

Search our weather history database for the weather conditions in past years. The results will help you decide how hot, cold, wet, or windy it might be!

Date:

Astronomy

Feb. 15, 2012 Rise Set
Actual Time 6:45 AM EST 5:24 PM EST
Civil Twilight 6:17 AM EST 5:52 PM EST
Nautical Twilight 5:45 AM EST 6:24 PM EST
Astronomical Twilight 5:13 AM EST 6:56 PM EST
Moon 1:36 AM EST (2/15) 11:16 AM EST (2/15)
Length of Visible Light 11h 35m
Length of Day
10h 39m
Last Quarter, 39% of the Moon is Illuminated
Feb 15
Last Quarter
Feb 21
New
Feb 29
First Quarter
Mar 8
Full
Mar 14
Last Quarter

Hourly Weather History & Observations

Time (EST) Temp. Windchill Dew Point Humidity Pressure Visibility Wind Dir Wind Speed Gust Speed Precip Events Conditions
12:53 AM 39.0 °F - 37.0 °F 93% 30.11 in 10.0 mi Calm Calm - 0.01 in Rain Light Rain
1:53 AM 37.9 °F - 36.0 °F 93% 30.10 in 8.0 mi Calm Calm - 0.00 in   Overcast
2:53 AM 37.0 °F - 36.0 °F 96% 30.10 in 7.0 mi Calm Calm - 0.00 in Rain Light Rain
3:53 AM 37.0 °F - 36.0 °F 96% 30.10 in 8.0 mi Calm Calm - 0.00 in   Overcast
4:53 AM 37.0 °F - 36.0 °F 96% 30.12 in 7.0 mi Calm Calm - 0.00 in   Partly Cloudy
5:53 AM 35.1 °F - 33.1 °F 92% 30.12 in 6.0 mi Calm Calm - N/A   Overcast
6:53 AM 35.1 °F - 34.0 °F 96% 30.14 in 7.0 mi Calm Calm - N/A   Mostly Cloudy
7:53 AM 37.0 °F - 35.1 °F 93% 30.15 in 9.0 mi Calm Calm - N/A   Clear
8:53 AM 43.0 °F - 39.9 °F 89% 30.16 in 10.0 mi Calm Calm - N/A   Mostly Cloudy
9:53 AM 45.0 °F - 37.0 °F 74% 30.17 in 10.0 mi Calm Calm - N/A   Overcast
10:12 AM 46.4 °F - 39.2 °F 76% 30.17 in 10.0 mi Calm Calm - N/A   Overcast
10:40 AM 46.4 °F 45.2 °F 37.4 °F 71% 30.18 in 10.0 mi WNW 3.5 mph - N/A   Overcast
10:53 AM 46.0 °F 43.1 °F 37.0 °F 71% 30.18 in 10.0 mi NW 5.8 mph - N/A   Overcast
11:27 AM 46.4 °F 44.3 °F 37.4 °F 71% 30.18 in 10.0 mi NNW 4.6 mph - N/A   Overcast
11:53 AM 46.9 °F - 36.0 °F 66% 30.18 in 10.0 mi NW 6.9 mph - N/A   Overcast
12:03 PM 46.4 °F 42.4 °F 35.6 °F 66% 30.18 in 10.0 mi NW 8.1 mph - N/A   Overcast
12:16 PM 46.4 °F 42.9 °F 35.6 °F 66% 30.18 in 10.0 mi NW 6.9 mph - N/A   Overcast
12:53 PM 46.0 °F 43.1 °F 36.0 °F 68% 30.17 in 10.0 mi NW 5.8 mph - N/A   Overcast
1:53 PM 46.0 °F 42.5 °F 36.0 °F 68% 30.17 in 10.0 mi NW 6.9 mph - N/A   Overcast
2:53 PM 46.0 °F 43.1 °F 35.1 °F 66% 30.17 in 10.0 mi WNW 5.8 mph - N/A   Overcast
3:53 PM 46.0 °F 43.1 °F 35.1 °F 66% 30.18 in 10.0 mi WNW 5.8 mph - N/A   Overcast
4:53 PM 45.0 °F 41.8 °F 35.1 °F 68% 30.19 in 10.0 mi WNW 5.8 mph - N/A   Overcast
5:53 PM 42.1 °F 40.2 °F 35.1 °F 76% 30.21 in 10.0 mi West 3.5 mph - N/A   Overcast
6:53 PM 42.1 °F 38.4 °F 35.1 °F 76% 30.24 in 10.0 mi WNW 5.8 mph - N/A   Overcast
7:53 PM 42.1 °F 39.2 °F 35.1 °F 76% 30.26 in 10.0 mi NW 4.6 mph - N/A   Overcast
8:53 PM 39.9 °F 35.8 °F 32.0 °F 73% 30.27 in 10.0 mi NW 5.8 mph - N/A   Scattered Clouds
9:53 PM 33.1 °F 26.9 °F 28.9 °F 85% 30.27 in 10.0 mi NNW 6.9 mph - N/A   Mostly Cloudy
10:53 PM 37.9 °F 34.4 °F 33.1 °F 83% 30.27 in 10.0 mi North 4.6 mph - N/A   Overcast
11:53 PM 39.0 °F 34.8 °F 32.0 °F 76% 30.28 in 10.0 mi NNW 5.8 mph - N/A   Overcast